Track STARLINK-1904 now! 10-day predictions STARLINK-1904 is classified as:
1 48389U 21038AN 22186.65323527 -.00001651 00000-0 -91980-4 0 9994 2 48389 53.0545 250.7421 0001474 67.8170 292.2975 15.06397966 64875